[[{"header":{"parameterUnit":"m.s-1","parameterCategory":1,"la1":30.2991,"la2":30.254,"lo1":-89.0895,"lo2":-89.0444,"dy":0.0017,"dx":0.0017,"nx":28,"ny":28,"refTime":"2025-06-08T03:00:00:Z","depth":0,"parameterNumber":2,"parameterNumberName":"U-component_of_WINDS"},"data":[0,0,0,0,0,0,0,0,0,0,0,0,0,0,0,0,0,0,0,0,0,0,0,0,0,0,0,0,0,0,0,0,0,0,0,0,0,0,0,0,0,0,0,0,0,0,0,0,0,0,0,0,0,0,0,0,0,0,3.469,3.4689,0,3.466,3.4659,3.4659,3.46,3.4599,3.4598,3.4597,3.4568,3.4568,3.4568,0,0,0,0,0,0,0,0,0,0,0,0,0,3.4698,3.4698,3.469,3.4689,3.4689,3.466,3.4659,3.4659,3.4601,3.4599,3.4598,3.4596,3.4568,3.4568,3.4568,0,0,0,0,0,0,0,0,0,0,0,0,0,3.4684,3.4699,3.469,3.4656,3.4653,3.466,3.4659,3.4659,3.4601,3.4599,3.4597,3.4596,3.4568,3.4568,3.4568,3.4606,0,0,3.457,3.457,0,0,0,0,0,0,0,0,3.4685,3.4684,3.4662,3.4659,3.4655,3.4632,3.4652,3.4641,3.4601,3.4621,3.4597,3.4595,3.4591,3.4589,3.4587,3.4605,3.4603,3.457,3.457,3.457,3.4571,0,0,0,0,0,0,0,3.4686,3.4685,3.4678,3.4661,3.4657,3.4643,3.4639,3.4649,3.4616,3.4619,3.4615,3.4612,3.4589,3.4587,3.4586,3.4603,3.457,3.457,3.4571,3.4571,3.4651,3.4653,0,0,0,0,0,0,3.4692,3.4686,3.4679,3.4677,3.4666,3.4645,3.464,3.4641,3.4616,3.461,3.4613,3.4609,3.4587,3.4586,3.4585,3.4628,3.457,3.4571,3.4571,3.4649,3.4652,3.4654,0,0,0,0,0,0,3.4692,3.4692,3.468,3.468,3.4678,3.4646,3.4648,3.4641,3.464,3.4611,3.4605,3.4618,3.4586,3.4584,3.4601,3.4626,3.4571,3.4571,3.4647,3.465,3.4653,3.4715,0,0,0,0,0,0,3.4693,3.4692,3.4706,3.4681,3.4678,3.4697,3.4649,3.4642,3.4641,3.4635,3.4614,3.4609,3.4584,3.4601,3.4602,3.4626,3.4572,3.4645,3.4648,3.4652,3.471,3.4719,3.4727,0,0,0,0,0,3.4693,3.4724,3.4707,3.4706,3.4694,3.4698,3.4696,3.4667,3.4643,3.4657,3.4638,3.4609,3.4623,3.4603,3.4604,3.4628,3.4643,3.4647,3.4651,3.4706,3.4717,3.4727,0,0,0,0,0,0,3.4753,3.472,3.47,3.4724,3.4714,3.4688,3.4704,3.4679,3.4676,3.4671,3.4635,3.4631,3.4654,3.4642,3.4621,3.4664,3.4629,3.4633,3.4671,3.4681,3.4689,3.4691,3.4572,0,0,0,0,0,3.4769,3.4774,3.4746,3.477,3.4766,3.4736,3.4737,3.4715,3.4703,3.4699,3.4682,3.4672,3.4675,3.4677,3.4677,3.4708,3.4703,3.4725,3.4734,3.4741,3.4745,3.4762,3.4772,3.4667,3.4667,3.4667,0,0,3.4802,3.4785,3.479,3.4781,3.4771,3.4778,3.4733,3.4742,3.4747,3.4701,3.4716,3.4703,3.469,3.4715,3.4725,3.4706,3.4773,3.4746,3.4752,3.4753,3.4767,3.4777,3.4786,3.467,3.467,3.4669,0,0,3.4866,3.4853,3.4872,3.4863,3.4848,3.4828,3.4833,3.481,3.48,3.4815,3.478,3.4786,3.479,3.4783,3.478,3.4842,3.4816,3.4843,3.4887,3.4904,3.4912,3.4919,3.4942,3.4951,3.4848,3.4848,3.4848,0,3.4909,3.4918,3.4885,3.4897,3.4894,3.4852,3.4872,3.4864,3.4851,3.485,3.483,3.4835,3.4823,3.4846,3.4861,3.486,3.4865,3.4846,3.4913,3.492,3.4926,3.4948,3.4957,3.4851,3.4851,3.485,3.485,0,3.4972,3.4979,3.4996,3.4984,3.4983,3.4999,3.497,3.4973,3.4952,3.4935,3.4951,3.4935,3.4932,3.4936,3.4915,3.4956,3.4945,3.492,3.4883,3.494,3.496,3.4968,3.4856,3.4855,3.4854,3.4853,0,0,3.5072,3.5042,3.5049,3.5044,3.5024,3.5029,3.5044,3.504,3.5045,3.5037,3.5049,3.5054,3.503,3.5027,3.5005,3.5019,3.5071,3.4992,3.4991,3.5008,3.5117,3.5137,3.5147,3.5053,3.5055,3.5056,3.5118,0,3.5133,3.5155,3.5126,3.5155,3.5162,3.5122,3.5135,3.5125,3.511,3.5113,3.5096,3.5101,3.5069,3.5067,3.5079,3.5062,3.5093,3.5057,3.5065,3.5066,3.507,3.5157,3.5178,3.5238,3.5126,3.5127,3.5128,0,3.5206,3.5202,3.5231,3.5211,3.5213,3.5224,3.522,3.5224,3.5212,3.52,3.5197,3.517,3.5184,3.5149,3.5168,3.5144,3.5146,3.5138,3.514,3.514,3.5101,3.5161,3.5256,3.5266,3.514,3.5139,3.5138,0,3.5277,3.5279,3.5297,3.5293,3.527,3.528,3.5271,3.5257,3.5257,3.5254,3.5254,3.5252,3.5251,3.525,3.5225,3.5201,3.5248,3.521,3.5239,3.524,3.5251,3.525,3.5348,3.5251,3.525,3.525,3.525,0,3.5348,3.5368,3.5329,3.534,3.5362,3.533,3.5352,3.5339,3.5328,3.5336,3.5302,3.5311,3.5276,3.5282,3.5262,3.5281,3.5281,3.5272,3.5267,3.5276,3.5277,3.5277,3.5272,3.5253,3.5252,3.5252,3.5251,0,3.5432,3.5407,3.5424,3.5401,3.5395,3.5412,3.5393,3.5403,3.5385,3.5397,3.5398,3.537,3.5375,3.535,3.535,3.5337,3.5367,3.5354,3.5371,3.5367,3.5398,3.5396,3.55,3.5512,3.5406,3.5407,3.5408,0,3.5479,3.5494,3.5472,3.5475,3.5468,3.5473,3.5474,3.5443,3.5445,3.5433,3.5445,3.5447,3.5447,3.5457,3.5438,3.5438,3.5426,3.5462,3.5426,3.5435,3.5427,3.5427,3.5429,3.547,3.5471,3.5472,3.5473,0,3.5566,3.5553,3.5554,3.5552,3.5553,3.555,3.5544,3.5549,3.5515,3.5519,3.5524,3.5524,3.5525,3.5528,3.5524,3.5515,3.549,3.5485,3.5492,3.5502,3.5511,3.5507,3.5392,3.5483,3.5482,3.5481,3.5481,3.548,3.5633,3.5645,3.5632,3.5635,3.5627,3.5623,3.5632,3.5615,3.5619,3.5616,3.5598,3.5607,3.5596,3.5588,3.5582,3.5589,3.5572,3.5582,3.5584,3.5588,3.5594,3.551,3.5588,3.5588,3.5588,3.5588,3.5587,0,3.5719,3.5709,3.5712,3.5706,3.5708,3.5683,3.5676,3.568,3.5688,3.5679,3.568,3.5686,3.5689,3.5671,3.5671,3.568,3.5669,3.5682,3.5681,3.568,3.5608,3.5603,3.5691,3.5691,3.5691,3.5691,3.5691,3.5691,3.5764,3.5783,3.5768,3.5783,3.5773,3.5781,3.5779,3.5775,3.5769,3.5777,3.5779,3.5767,3.5755,3.5754,3.5756,3.5751,3.5753,3.5771,3.5761,3.5695,3.5685,3.5675,3.567,3.5771,3.5771,3.5832,3.5833,3.5833]},{"header":{"parameterUnit":"m.s-1","parameterCategory":1,"la1":30.2991,"la2":30.254,"lo1":-89.0895,"lo2":-89.0444,"dy":0.0017,"dx":0.0017,"nx":28,"ny":28,"refTime":"2025-06-08T03:00:00:Z","depth":0,"parameterNumber":3,"parameterNumberName":"V-component_of_WINDS"},"data":[0,0,0,0,0,0,0,0,0,0,0,0,0,0,0,0,0,0,0,0,0,0,0,0,0,0,0,0,0,0,0,0,0,0,0,0,0,0,0,0,0,0,0,0,0,0,0,0,0,0,0,0,0,0,0,0,0,0,6.0488,6.049,0,6.0619,6.062,6.0622,6.0649,6.0648,6.0647,6.0647,6.0772,6.0777,6.0781,0,0,0,0,0,0,0,0,0,0,0,0,0,6.0256,6.026,6.0488,6.049,6.0491,6.0618,6.062,6.0622,6.0649,6.0648,6.0647,6.0646,6.0771,6.0776,6.0781,0,0,0,0,0,0,0,0,0,0,0,0,0,6.0369,6.0262,6.0488,6.0521,6.0525,6.0618,6.062,6.0622,6.065,6.0648,6.0647,6.0646,6.0769,6.0776,6.0782,6.0849,0,0,6.0801,6.0804,0,0,0,0,0,0,0,0,6.0362,6.0377,6.0514,6.0518,6.0523,6.0617,6.0585,6.0698,6.065,6.0602,6.0647,6.0645,6.0721,6.0731,6.0759,6.0855,6.0861,6.0802,6.0806,6.0808,6.081,0,0,0,0,0,0,0,6.0354,6.0371,6.0539,6.0516,6.0522,6.0527,6.0541,6.0606,6.0668,6.0606,6.0608,6.0624,6.0723,6.0753,6.0762,6.0862,6.0802,6.0807,6.0811,6.0814,6.1022,6.1024,0,0,0,0,0,0,6.0342,6.0365,6.0535,6.0543,6.0438,6.0532,6.0548,6.0588,6.0667,6.0678,6.0625,6.0625,6.0742,6.0754,6.0766,6.0852,6.0808,6.0814,6.0818,6.102,6.1022,6.1024,0,0,0,0,0,0,6.0337,6.0357,6.053,6.0455,6.0477,6.0538,6.0582,6.0591,6.0621,6.0682,6.0692,6.0644,6.0742,6.0757,6.0829,6.0856,6.0817,6.0823,6.1018,6.1021,6.1023,6.1022,0,0,0,0,0,0,6.033,6.0355,6.0382,6.0456,6.0481,6.0593,6.0584,6.0595,6.0632,6.0633,6.0702,6.0712,6.0742,6.082,6.0836,6.0865,6.0828,6.1016,6.1019,6.1022,6.102,6.1025,6.1028,0,0,0,0,0,6.0322,6.0375,6.0384,6.0404,6.0518,6.0594,6.0609,6.0644,6.0634,6.0662,6.0701,6.071,6.0851,6.0827,6.0845,6.0876,6.1014,6.1018,6.1022,6.1018,6.1024,6.1028,0,0,0,0,0,0,6.03,6.0385,6.0396,6.0475,6.0528,6.0599,6.0635,6.0649,6.0703,6.0701,6.0741,6.0756,6.0826,6.0858,6.0829,6.0946,6.0932,6.094,6.0923,6.0928,6.0932,6.0923,6.0833,0,0,0,0,0,6.0305,6.0363,6.0433,6.0495,6.0522,6.0574,6.0608,6.0632,6.0687,6.0708,6.0753,6.0804,6.086,6.0896,6.0951,6.1025,6.104,6.1055,6.1059,6.1062,6.1068,6.1111,6.1119,6.1037,6.1037,6.1037,0,0,6.0315,6.0369,6.0402,6.0493,6.0536,6.0593,6.0592,6.0652,6.0694,6.0716,6.0788,6.0823,6.0882,6.0956,6.0991,6.0985,6.1095,6.1067,6.1069,6.1074,6.1116,6.1124,6.1131,6.104,6.1039,6.1039,0,0,6.0363,6.0409,6.0467,6.0512,6.0579,6.0614,6.0628,6.0698,6.0723,6.0796,6.0814,6.0864,6.0959,6.1002,6.1035,6.1101,6.1111,6.1117,6.1138,6.118,6.1186,6.1192,6.1216,6.1224,6.1123,6.1123,6.1123,0,6.0366,6.0455,6.0495,6.0555,6.0594,6.062,6.0679,6.0719,6.08,6.0825,6.0819,6.0941,6.0982,6.1067,6.1083,6.111,6.1126,6.111,6.1182,6.1189,6.1195,6.1218,6.1227,6.1124,6.1124,6.1123,6.1123,0,6.0456,6.0517,6.0556,6.0637,6.068,6.0739,6.0786,6.0825,6.0845,6.0879,6.0953,6.1005,6.1071,6.1093,6.1111,6.1181,6.1175,6.1175,6.1161,6.1202,6.1225,6.1234,6.1124,6.1124,6.1124,6.1124,0,0,6.0492,6.0597,6.061,6.0648,6.0725,6.0772,6.0832,6.09,6.0933,6.0987,6.1038,6.1119,6.112,6.1159,6.1182,6.1218,6.1268,6.1213,6.1215,6.1222,6.1348,6.1349,6.1359,6.1275,6.1277,6.1278,6.1344,0,6.055,6.0661,6.0699,6.079,6.0847,6.0874,6.0926,6.0977,6.1011,6.1063,6.11,6.1158,6.1154,6.1178,6.1215,6.1254,6.1294,6.125,6.1321,6.1324,6.1307,6.137,6.1371,6.143,6.1353,6.1354,6.1355,0,6.0632,6.0692,6.0789,6.0861,6.0886,6.0933,6.0999,6.1049,6.1107,6.113,6.1174,6.1195,6.1257,6.124,6.1326,6.1295,6.1327,6.1351,6.1354,6.1362,6.1342,6.1381,6.1449,6.1458,6.1369,6.1368,6.1367,0,6.065,6.0754,6.0827,6.0858,6.0943,6.0975,6.1012,6.107,6.1109,6.1165,6.1191,6.1253,6.1287,6.1334,6.1371,6.1355,6.1453,6.1439,6.1473,6.1472,6.1492,6.1491,6.1568,6.1512,6.1511,6.1511,6.1511,0,6.0711,6.0769,6.0837,6.0881,6.0948,6.099,6.1054,6.1091,6.1143,6.1194,6.1219,6.1266,6.1312,6.1364,6.1393,6.146,6.1475,6.1494,6.1501,6.1492,6.149,6.1513,6.1511,6.1514,6.1513,6.1513,6.1512,0,6.0742,6.079,6.0871,6.0946,6.0966,6.1011,6.1075,6.1118,6.1154,6.1218,6.1236,6.1291,6.1354,6.1396,6.1476,6.1495,6.1569,6.1574,6.155,6.1553,6.1585,6.1582,6.168,6.1696,6.1629,6.1629,6.163,0,6.0778,6.0824,6.0905,6.0943,6.0981,6.104,6.1081,6.1125,6.1166,6.1238,6.1272,6.1338,6.1393,6.1492,6.1539,6.16,6.1607,6.1638,6.1617,6.1607,6.1609,6.1606,6.1611,6.1641,6.1642,6.1642,6.1642,0,6.0837,6.0859,6.0918,6.0987,6.1036,6.109,6.1145,6.1174,6.1226,6.1271,6.1338,6.1381,6.1465,6.1529,6.1595,6.163,6.1645,6.1649,6.166,6.1652,6.1637,6.1646,6.156,6.1646,6.1646,6.1646,6.1645,6.1645,6.0872,6.0915,6.098,6.1046,6.1092,6.1144,6.1189,6.1232,6.1289,6.1363,6.1384,6.1454,6.1512,6.1603,6.164,6.1694,6.169,6.1706,6.171,6.1714,6.1715,6.1628,6.1705,6.1705,6.1705,6.1705,6.1705,0,6.0933,6.0977,6.1037,6.1115,6.1167,6.1179,6.1241,6.1282,6.1345,6.1399,6.1454,6.1531,6.1594,6.1646,6.1711,6.1744,6.1753,6.176,6.1758,6.1766,6.1713,6.1698,6.1752,6.1752,6.1752,6.1752,6.1752,6.1752,6.0971,6.1046,6.1075,6.1173,6.1215,6.1286,6.1321,6.1368,6.1412,6.1498,6.1552,6.1587,6.164,6.171,6.1768,6.1781,6.1804,6.181,6.1825,6.1775,6.177,6.1765,6.175,6.1815,6.1815,6.1874,6.1874,6.1875]}]]